Volver al catálogo

NAVSTAR 86

USA 585

ActivoNavegaciónHEO
NORAD 68791·PAYLOAD·🇺🇸 United States

Lanzado Apr 21, 2026 desde Cape Canaveral Space Force Station

Loading…

Próximos Pases (próximas 24 horas)

TLE

ActualizadoSource: CelesTrak SupGP

Época: Sep 14, 2026, 00:00 UTC

1 68791C 26087A   26257.00000000  .00000000  00000+0  00000+0 0  2571
2 68791  54.9550 204.2786 0021238 103.0514 145.9189  2.00578137    11

Sigue NAVSTAR 86 en tiempo real con AllMySat

Download on the App Store